TimeEDT,TemperatureF,Dew PointF,Humidity,Sea Level PressureIn,VisibilityMPH,Wind Direction,Wind SpeedMPH,Gust SpeedMPH,PrecipitationIn,Events,Conditions,WindDirDegrees,DateUTC
12:15 AM,32.7,27.1,80,30.19,10.0,Calm,Calm,-,N/A,,Clear,0,2013-03-15 04:15:00
12:35 AM,31.3,25.5,79,30.19,10.0,Calm,Calm,-,N/A,,Clear,0,2013-03-15 04:35:00
12:55 AM,31.6,26.2,80,30.19,10.0,Calm,Calm,-,N/A,,Clear,0,2013-03-15 04:55:00
1:15 AM,31.3,26.2,82,30.20,10.0,Calm,Calm,-,N/A,,Clear,0,2013-03-15 05:15:00
1:35 AM,29.8,25.7,85,30.20,10.0,Calm,Calm,-,N/A,,Clear,0,2013-03-15 05:35:00
1:55 AM,29.5,25.3,85,30.20,10.0,Calm,Calm,-,N/A,,Clear,0,2013-03-15 05:55:00
2:15 AM,29.7,25.3,84,30.20,10.0,Calm,Calm,-,N/A,,Clear,0,2013-03-15 06:15:00
2:35 AM,29.7,25.3,84,30.19,10.0,Calm,Calm,-,N/A,,Clear,0,2013-03-15 06:35:00
2:55 AM,29.3,25.3,85,30.19,10.0,Calm,Calm,-,N/A,,Clear,0,2013-03-15 06:55:00
3:15 AM,28.0,23.9,84,30.18,10.0,Calm,Calm,-,N/A,,Clear,0,2013-03-15 07:15:00
3:35 AM,28.6,24.6,85,30.18,10.0,Calm,Calm,-,N/A,,Clear,0,2013-03-15 07:35:00
3:55 AM,28.0,25.0,88,30.17,10.0,Calm,Calm,-,N/A,,Clear,0,2013-03-15 07:55:00
4:15 AM,28.4,25.3,88,30.17,10.0,Calm,Calm,-,N/A,,Clear,0,2013-03-15 08:15:00
4:35 AM,27.5,24.6,89,30.17,10.0,Calm,Calm,-,N/A,,Clear,0,2013-03-15 08:35:00
4:55 AM,27.9,24.8,88,30.17,10.0,Calm,Calm,-,N/A,,Clear,0,2013-03-15 08:55:00
5:15 AM,28.4,25.5,89,30.18,10.0,Calm,Calm,-,N/A,,Clear,0,2013-03-15 09:15:00
5:35 AM,28.2,24.1,84,30.20,10.0,Calm,Calm,-,N/A,,Clear,0,2013-03-15 09:35:00
5:55 AM,26.8,23.0,86,30.20,10.0,Calm,Calm,-,N/A,,Clear,0,2013-03-15 09:55:00
6:15 AM,27.0,23.9,88,30.19,10.0,Calm,Calm,-,N/A,,Clear,0,2013-03-15 10:15:00
6:35 AM,27.5,24.3,88,30.18,10.0,Calm,Calm,-,N/A,,Clear,0,2013-03-15 10:35:00
6:55 AM,27.0,23.5,87,30.19,10.0,Calm,Calm,-,N/A,,Clear,0,2013-03-15 10:55:00
7:15 AM,27.3,24.3,88,30.19,10.0,Calm,Calm,-,N/A,,Clear,0,2013-03-15 11:15:00
7:35 AM,27.0,23.9,88,30.19,10.0,Calm,Calm,-,N/A,,Clear,0,2013-03-15 11:35:00
7:55 AM,25.7,22.8,89,30.19,10.0,Calm,Calm,-,N/A,,Clear,0,2013-03-15 11:55:00
8:15 AM,28.6,25.5,88,30.20,10.0,Calm,Calm,-,N/A,,Clear,0,2013-03-15 12:15:00
8:35 AM,31.5,26.4,82,30.21,10.0,Calm,Calm,-,N/A,,Clear,0,2013-03-15 12:35:00
8:55 AM,33.8,25.7,72,30.21,10.0,Calm,Calm,-,N/A,,Clear,0,2013-03-15 12:55:00
9:15 AM,37.2,26.8,66,30.22,10.0,Calm,Calm,-,N/A,,Clear,0,2013-03-15 13:15:00
9:35 AM,40.3,24.1,52,30.23,10.0,Calm,Calm,-,N/A,,Clear,0,2013-03-15 13:35:00
9:55 AM,43.0,24.1,47,30.22,10.0,Calm,Calm,-,N/A,,Clear,0,2013-03-15 13:55:00
10:15 AM,45.9,22.5,40,30.21,10.0,Calm,Calm,-,N/A,,Clear,0,2013-03-15 14:15:00
10:35 AM,48.7,21.0,34,30.20,10.0,Calm,Calm,-,N/A,,Clear,0,2013-03-15 14:35:00
11:55 AM,54.5,19.2,25,30.15,10.0,SW,4.6,-,N/A,,Clear,220,2013-03-15 15:55:00
12:15 PM,56.1,21.9,27,30.14,10.0,South,5.8,-,N/A,,Clear,190,2013-03-15 16:15:00
12:35 PM,57.0,22.1,26,30.13,10.0,SSW,9.2,16.1,N/A,,Clear,200,2013-03-15 16:35:00
12:55 PM,58.3,23.4,26,30.11,10.0,SW,5.8,-,N/A,,Clear,230,2013-03-15 16:55:00
1:15 PM,59.9,24.8,26,30.10,10.0,WSW,6.9,-,N/A,,Clear,240,2013-03-15 17:15:00
1:35 PM,60.3,24.8,26,30.09,10.0,SW,9.2,-,N/A,,Clear,230,2013-03-15 17:35:00
1:55 PM,61.9,25.9,25,30.08,10.0,SSW,6.9,-,N/A,,Clear,200,2013-03-15 17:55:00
2:15 PM,61.7,24.6,24,30.07,10.0,WSW,6.9,17.3,N/A,,Clear,250,2013-03-15 18:15:00
2:35 PM,62.8,26.8,26,30.06,10.0,SSW,8.1,-,N/A,,Clear,210,2013-03-15 18:35:00
2:55 PM,62.6,26.8,26,30.04,10.0,SW,6.9,-,N/A,,Clear,230,2013-03-15 18:55:00
3:15 PM,62.8,26.6,25,30.03,10.0,SW,6.9,-,N/A,,Clear,230,2013-03-15 19:15:00
3:35 PM,64.4,27.7,25,30.02,10.0,South,5.8,-,N/A,,Clear,190,2013-03-15 19:35:00
3:55 PM,65.3,28.9,26,30.00,10.0,SSW,10.4,-,N/A,,Clear,200,2013-03-15 19:55:00
4:15 PM,65.3,28.8,25,30.00,10.0,SSW,9.2,-,N/A,,Clear,210,2013-03-15 20:15:00
4:35 PM,64.9,28.8,26,30.00,10.0,SSW,8.1,-,N/A,,Clear,210,2013-03-15 20:35:00
4:55 PM,64.6,28.9,26,29.98,10.0,SW,10.4,16.1,N/A,,Clear,220,2013-03-15 20:55:00
5:15 PM,64.0,28.9,27,29.97,10.0,SSW,9.2,-,N/A,,Clear,210,2013-03-15 21:15:00
5:35 PM,63.9,30.2,28,29.96,10.0,SSW,5.8,-,N/A,,Clear,200,2013-03-15 21:35:00
5:55 PM,65.3,29.5,26,29.95,10.0,South,9.2,-,N/A,,Clear,190,2013-03-15 21:55:00
6:15 PM,65.5,29.5,26,29.95,10.0,SSW,6.9,-,N/A,,Clear,200,2013-03-15 22:15:00
6:35 PM,64.9,30.4,27,29.95,10.0,South,4.6,-,N/A,,Clear,180,2013-03-15 22:35:00
6:55 PM,63.7,30.9,29,29.95,10.0,South,5.8,-,N/A,,Clear,180,2013-03-15 22:55:00
7:15 PM,62.2,31.8,32,29.95,10.0,South,3.5,-,N/A,,Clear,180,2013-03-15 23:15:00
7:35 PM,60.8,32.0,34,29.95,10.0,Calm,Calm,-,N/A,,Clear,0,2013-03-15 23:35:00
7:55 PM,60.1,32.4,35,29.95,10.0,Calm,Calm,-,N/A,,Clear,0,2013-03-15 23:55:00
8:15 PM,57.9,33.4,40,29.95,10.0,South,3.5,-,N/A,,Clear,170,2013-03-16 00:15:00
8:35 PM,59.2,32.7,37,29.93,10.0,South,3.5,-,N/A,,Clear,170,2013-03-16 00:35:00
8:55 PM,57.9,33.1,39,29.93,10.0,SSE,5.8,-,N/A,,Clear,150,2013-03-16 00:55:00
9:15 PM,57.4,32.9,40,29.93,10.0,SSE,4.6,-,N/A,,Clear,160,2013-03-16 01:15:00
9:35 PM,57.9,32.5,38,29.93,10.0,South,4.6,-,N/A,,Clear,170,2013-03-16 01:35:00
9:55 PM,56.8,33.1,41,29.93,10.0,South,4.6,-,N/A,,Clear,170,2013-03-16 01:55:00
10:15 PM,56.3,33.1,41,29.93,10.0,South,4.6,-,N/A,,Clear,170,2013-03-16 02:15:00
10:35 PM,56.3,33.3,42,29.92,10.0,South,5.8,-,N/A,,Clear,180,2013-03-16 02:35:00
10:55 PM,56.8,34.0,42,29.92,10.0,South,6.9,-,N/A,,Clear,180,2013-03-16 02:55:00
11:15 PM,57.2,34.2,42,29.92,10.0,South,5.8,-,N/A,,Clear,180,2013-03-16 03:15:00
11:35 PM,56.7,34.7,44,29.91,10.0,South,5.8,-,N/A,,Clear,190,2013-03-16 03:35:00
11:55 PM,56.3,34.9,45,29.92,10.0,Calm,Calm,-,N/A,,Clear,0,2013-03-16 03:55:00